This demonstration page uses our WeatherBlox Daily Observations layout. Learn more.

Hourly Observations for March 12, 2016

Temp ( °F °C ) Dew Point ( °F °C ) Humidity (%) Winds ( mph kmh ) Pressure ( in mb ) Visibility ( mi km ) Precip ( " mm )
12:15 am 00:15 Clear 46 8 41 5 82 82 WNW 3 6 30.39 1029 10 16.09344 0 0
12:35 am 00:35 Clear 48 9 41 5 76 76 WNW 3 6 30.36 1028 10 16.09344 0 0
12:55 am 00:55 Clear 46 8 41 5 82 82 NNW 3 6 30.36 1028 10 16.09344 0 0
1:15 am 01:15 Clear 46 8 39 4 76 76 Calm 30.39 1029 10 16.09344 0 0
1:35 am 01:35 Clear 46 8 41 5 82 82 Calm 30.39 1029 10 16.09344 0 0
1:55 am 01:55 Clear 45 7 41 5 87 87 N 3 6 30.36 1028 10 16.09344 0 0
2:15 am 02:15 Clear 46 8 41 5 82 82 NE 5 7 30.36 1028 10 16.09344 0 0
2:35 am 02:35 Clear 43 6 41 5 93 93 NNW 3 6 30.36 1028 10 16.09344 0 0
2:55 am 02:55 Clear 43 6 39 4 87 87 NNW 3 6 30.36 1028 10 16.09344 0 0
3:15 am 03:15 Clear 43 6 39 4 87 87 N 3 6 30.36 1028 10 16.09344 0 0
3:35 am 03:35 Clear 46 8 39 4 76 76 Calm 30.36 1028 10 16.09344 0 0
3:55 am 03:55 Clear 43 6 39 4 87 87 Calm 30.36 1028 10 16.09344 0 0
4:15 am 04:15 Clear 43 6 39 4 87 87 Calm 30.36 1028 10 16.09344 0 0
4:35 am 04:35 Clear 43 6 41 5 93 93 Calm 30.36 1028 10 16.09344 0 0
4:55 am 04:55 Clear 45 7 41 5 87 87 Calm 30.36 1028 10 16.09344 0 0
5:15 am 05:15 Clear 46 8 41 5 82 82 Calm 30.36 1028 10 16.09344 0 0
5:35 am 05:35 Clear 45 7 41 5 87 87 Calm 30.36 1028 10 16.09344 0 0
5:55 am 05:55 Partly Cloudy 46 8 41 5 82 82 Calm 30.36 1028 10 16.09344 0 0
6:15 am 06:15 Cloudy 46 8 41 5 82 82 Calm 30.36 1028 10 16.09344 0 0
6:35 am 06:35 Cloudy 48 9 41 5 76 76 Calm 30.36 1028 10 16.09344 0 0
7:15 am 07:15 Cloudy 46 8 43 6 87 87 Calm 30.36 1028 10 16.09344 0 0
7:35 am 07:35 Cloudy 48 9 43 6 82 82 Calm 30.36 1028 10 16.09344 0 0
7:55 am 07:55 Cloudy with Light Rain 48 9 41 5 76 76 Calm 30.36 1028 10 16.09344 0 0
8:15 am 08:15 Cloudy 48 9 43 6 82 82 Calm 30.36 1028 10 16.09344 0 0
8:35 am 08:35 Cloudy 50 10 43 6 76 76 Calm 30.36 1028 10 16.09344 0 0
8:55 am 08:55 Cloudy 50 10 43 6 76 76 Calm 30.36 1028 10 16.09344 0 0
9:15 am 09:15 Cloudy 50 10 43 6 76 76 Calm 30.33 1027 10 16.09344 0 0
9:35 am 09:35 Cloudy 52 11 43 6 72 72 Calm 30.33 1027 10 16.09344 0 0
9:55 am 09:55 Cloudy 52 11 43 6 72 72 Calm 30.33 1027 10 16.09344 0 0
10:15 am 10:15 Mostly Cloudy 54 12 45 7 72 72 S 3 6 30.3 1026 10 16.09344 0 0
10:35 am 10:35 Mostly Cloudy 55 13 43 6 63 63 SSE 6 9 30.27 1025 10 16.09344 0 0
10:55 am 10:55 Mostly Cloudy 55 13 43 6 63 63 S 6 9 30.27 1025 10 16.09344 0 0
11:15 am 11:15 Cloudy 55 13 45 7 67 67 SSE 7 11 30.27 1025 10 16.09344 0 0
11:35 am 11:35 Cloudy 55 13 45 7 67 67 SSE 6 9 30.27 1025 10 16.09344 0 0
11:55 am 11:55 Cloudy 57 14 45 7 63 63 SSE 7 11 30.24 1024 10 16.09344 0 0
12:15 pm 12:15 Cloudy 57 14 45 7 63 63 S 6 9 30.24 1024 10 16.09344 0 0
12:35 pm 12:35 Cloudy 59 15 46 8 63 63 S 3 6 30.24 1024 10 16.09344 0 0
12:55 pm 12:55 Cloudy 59 15 46 8 63 63 SSE 3 6 30.21 1023 10 16.09344 0 0
1:15 pm 13:15 Cloudy 59 15 46 8 63 63 ESE 3 6 30.21 1023 10 16.09344 0 0
1:35 pm 13:35 Cloudy 59 15 46 8 63 63 Calm 30.18 1022 10 16.09344 0 0
1:55 pm 13:55 Cloudy 59 15 46 8 63 63 E 3 6 30.18 1022 10 16.09344 0 0
2:15 pm 14:15 Cloudy 61 16 50 10 68 68 SSE 7 11 30.15 1021 10 16.09344 0 0
2:35 pm 14:35 Cloudy 63 17 50 10 64 64 SSE 6 9 30.15 1021 10 16.09344 0 0
2:55 pm 14:55 Cloudy 63 17 50 10 64 64 S 6 9 30.15 1021 10 16.09344 0 0
3:15 pm 15:15 Cloudy with Rain 61 16 52 11 72 72 Calm 30.15 1021 7 11.265408 0 0
3:35 pm 15:35 Cloudy with Light Rain 59 15 55 13 88 88 NE 3 6 30.12 1020 10 16.09344 0.01 0.254
3:55 pm 15:55 Cloudy with Light Rain 57 14 52 11 82 82 NNE 6 9 30.12 1020 10 16.09344 0.01 0.254
4:15 pm 16:15 Cloudy 57 14 52 11 82 82 Calm 30.12 1020 10 16.09344 0 0
4:35 pm 16:35 Cloudy 57 14 50 10 77 77 Calm 30.12 1020 10 16.09344 0 0
4:55 pm 16:55 Cloudy 57 14 50 10 77 77 Calm 30.09 1019 10 16.09344 0 0
5:15 pm 17:15 Cloudy 57 14 52 11 82 82 NNE 3 6 30.09 1019 10 16.09344 0 0
5:35 pm 17:35 Mostly Cloudy 55 13 50 10 82 82 N 5 7 30.12 1020 10 16.09344 0 0
5:55 pm 17:55 Partly Cloudy 54 12 50 10 88 88 N 5 7 30.12 1020 10 16.09344 0 0
6:15 pm 18:15 Partly Cloudy 54 12 48 9 82 82 Calm 30.12 1020 10 16.09344 0 0
6:35 pm 18:35 Clear 54 12 50 10 88 88 NNE 3 6 30.12 1020 10 16.09344 0 0
6:55 pm 18:55 Clear 54 12 50 10 88 88 Calm 30.12 1020 10 16.09344 0 0
7:15 pm 19:15 Mostly Cloudy 54 12 50 10 88 88 Calm 30.12 1020 10 16.09344 0 0
7:35 pm 19:35 Cloudy 54 12 50 10 88 88 Calm 30.12 1020 10 16.09344 0 0
7:55 pm 19:55 Cloudy 54 12 50 10 88 88 Calm 30.09 1019 10 16.09344 0 0
8:15 pm 20:15 Cloudy 55 13 50 10 82 82 NNE 3 6 30.09 1019 10 16.09344 0 0
8:35 pm 20:35 Cloudy 55 13 50 10 82 82 Calm 30.09 1019 10 16.09344 0 0
9:15 pm 21:15 Mostly Cloudy 55 13 48 9 77 77 Calm 30.09 1019 10 16.09344 0 0
9:35 pm 21:35 Cloudy 55 13 48 9 77 77 Calm 30.09 1019 10 16.09344 0 0
9:55 pm 21:55 Cloudy 55 13 48 9 77 77 Calm 30.09 1019 10 16.09344 0 0
10:15 pm 22:15 Partly Cloudy 54 12 48 9 82 82 Calm 30.06 1018 10 16.09344 0 0
10:35 pm 22:35 Partly Cloudy 54 12 46 8 77 77 Calm 30.06 1018 10 16.09344 0 0
10:55 pm 22:55 Mostly Cloudy 54 12 50 10 88 88 Calm 30.06 1018 10 16.09344 0 0
11:15 pm 23:15 Cloudy 54 12 50 10 88 88 SSW 3 6 30.06 1018 10 16.09344 0 0
11:35 pm 23:35 Mostly Cloudy 54 12 50 10 88 88 Calm 30.06 1018 10 16.09344 0 0
11:55 pm 23:55 Cloudy 54 12 50 10 88 88 Calm 30.06 1018 10 16.09344 0 0

Powered by AerisWeather